TimeCST,TemperatureF,Dew PointF,Humidity,Sea Level PressureIn,VisibilityMPH,Wind Direction,Wind SpeedMPH,Gust SpeedMPH,PrecipitationIn,Events,Conditions,WindDirDegrees,DateUTC
12:12 AM,10.4,6.8,85,30.05,10.0,Calm,Calm,-,N/A,,Clear,0,2013-12-13 06:12:00
12:32 AM,10.4,8.6,92,30.04,10.0,Calm,Calm,-,N/A,,Clear,0,2013-12-13 06:32:00
12:53 AM,10.4,8.6,92,30.04,10.0,Calm,Calm,-,N/A,,Clear,0,2013-12-13 06:53:00
1:12 AM,8.6,6.8,92,30.02,10.0,Calm,Calm,-,N/A,,Clear,0,2013-12-13 07:12:00
1:33 AM,8.6,6.8,92,30.02,10.0,Calm,Calm,-,N/A,,Unknown,0,2013-12-13 07:33:00
1:53 AM,8.6,6.8,92,30.03,10.0,Calm,Calm,-,N/A,,Clear,0,2013-12-13 07:53:00
2:12 AM,6.8,5.0,92,30.02,10.0,North,3.5,-,N/A,,Clear,360,2013-12-13 08:12:00
2:33 AM,8.6,6.8,92,30.03,10.0,North,6.9,-,N/A,,Clear,350,2013-12-13 08:33:00
2:52 AM,8.6,6.8,92,30.02,10.0,North,5.8,-,N/A,,Clear,350,2013-12-13 08:52:00
3:12 AM,8.6,6.8,92,30.02,10.0,North,6.9,-,N/A,,Clear,360,2013-12-13 09:12:00
3:33 AM,10.4,8.6,92,30.02,10.0,NNE,6.9,-,N/A,,Clear,20,2013-12-13 09:33:00
3:52 AM,12.2,10.4,92,30.02,7.0,NNE,8.1,-,N/A,,Clear,20,2013-12-13 09:52:00
4:13 AM,12.2,10.4,92,30.02,7.0,NE,8.1,-,N/A,,Clear,40,2013-12-13 10:13:00
4:32 AM,12.2,10.4,92,30.02,7.0,NE,6.9,-,N/A,,Clear,40,2013-12-13 10:32:00
4:52 AM,12.2,10.4,92,30.03,7.0,NE,6.9,-,N/A,,Mostly Cloudy,40,2013-12-13 10:52:00
5:13 AM,12.2,10.4,92,30.03,7.0,NNE,6.9,-,N/A,,Mostly Cloudy,30,2013-12-13 11:13:00
5:32 AM,12.2,10.4,92,30.02,10.0,NE,11.5,-,N/A,,Scattered Clouds,50,2013-12-13 11:32:00
5:52 AM,12.2,10.4,92,30.03,10.0,NE,9.2,-,N/A,,Clear,50,2013-12-13 11:52:00
6:13 AM,12.2,10.4,92,30.03,10.0,NE,10.4,-,N/A,,Clear,50,2013-12-13 12:13:00
6:32 AM,12.2,10.4,92,30.04,10.0,NE,10.4,-,N/A,,Clear,50,2013-12-13 12:32:00
6:52 AM,12.2,10.4,92,30.04,10.0,NE,11.5,-,N/A,,Clear,50,2013-12-13 12:52:00
7:13 AM,12.2,10.4,92,30.04,10.0,NE,9.2,-,N/A,,Clear,40,2013-12-13 13:13:00
7:32 AM,12.2,10.4,92,30.05,10.0,NE,11.5,-,N/A,,Clear,50,2013-12-13 13:32:00
7:53 AM,12.2,10.4,92,30.05,10.0,NE,10.4,-,N/A,,Clear,50,2013-12-13 13:53:00
8:12 AM,12.2,10.4,92,30.05,10.0,NE,10.4,-,N/A,,Clear,40,2013-12-13 14:12:00
8:32 AM,12.2,10.4,92,30.05,10.0,NE,12.7,-,N/A,,Clear,40,2013-12-13 14:32:00
8:53 AM,12.2,10.4,92,30.06,10.0,NE,10.4,-,N/A,,Clear,50,2013-12-13 14:53:00
9:12 AM,12.2,10.4,92,30.06,10.0,NE,12.7,-,N/A,,Clear,40,2013-12-13 15:12:00
9:32 AM,12.2,10.4,92,30.06,10.0,NE,10.4,18.4,N/A,,Clear,50,2013-12-13 15:32:00
9:53 AM,12.2,10.4,92,30.07,10.0,NE,12.7,-,N/A,,Clear,50,2013-12-13 15:53:00
10:12 AM,14.0,12.2,93,30.06,10.0,NE,16.1,-,N/A,,Scattered Clouds,50,2013-12-13 16:12:00
10:32 AM,15.8,12.2,86,30.07,10.0,ENE,15.0,19.6,N/A,,Clear,60,2013-12-13 16:32:00
10:53 AM,15.8,12.2,86,30.07,10.0,NE,15.0,19.6,N/A,,Clear,50,2013-12-13 16:53:00
11:12 AM,15.8,12.2,86,30.06,10.0,NE,12.7,-,N/A,,Scattered Clouds,50,2013-12-13 17:12:00
11:32 AM,15.8,12.2,86,30.06,10.0,ENE,16.1,-,N/A,,Scattered Clouds,60,2013-12-13 17:32:00
11:53 AM,15.8,12.2,86,30.05,10.0,NE,13.8,19.6,N/A,,Scattered Clouds,50,2013-12-13 17:53:00
12:12 PM,15.8,12.2,86,30.06,10.0,NE,15.0,-,N/A,,Overcast,50,2013-12-13 18:12:00
12:32 PM,15.8,12.2,86,30.06,10.0,NE,15.0,-,N/A,,Overcast,40,2013-12-13 18:32:00
12:53 PM,17.6,12.2,79,30.06,10.0,NNE,13.8,-,N/A,,Overcast,30,2013-12-13 18:53:00
1:12 PM,15.8,12.2,86,30.06,10.0,NE,15.0,-,N/A,,Overcast,40,2013-12-13 19:12:00
1:32 PM,15.8,12.2,86,30.06,10.0,NNE,16.1,-,N/A,,Overcast,30,2013-12-13 19:32:00
1:53 PM,15.8,10.4,79,30.05,10.0,NE,17.3,-,N/A,,Scattered Clouds,40,2013-12-13 19:53:00
2:12 PM,15.8,10.4,79,30.05,10.0,NE,18.4,-,N/A,,Clear,40,2013-12-13 20:12:00
2:32 PM,15.8,10.4,79,30.05,10.0,NE,17.3,20.7,N/A,,Clear,40,2013-12-13 20:32:00
2:53 PM,15.8,10.4,79,30.05,10.0,NNE,16.1,-,N/A,,Clear,30,2013-12-13 20:53:00
3:12 PM,15.8,12.2,86,30.06,10.0,NE,13.8,-,N/A,,Scattered Clouds,40,2013-12-13 21:12:00
3:33 PM,15.8,10.4,79,30.07,10.0,NNE,15.0,-,N/A,,Mostly Cloudy,30,2013-12-13 21:33:00
3:53 PM,15.8,10.4,79,30.07,10.0,NNE,16.1,21.9,N/A,,Mostly Cloudy,30,2013-12-13 21:53:00
4:12 PM,15.8,10.4,79,30.09,10.0,NE,13.8,19.6,N/A,,Scattered Clouds,40,2013-12-13 22:12:00
4:33 PM,14.0,10.4,86,30.09,10.0,NNE,12.7,17.3,N/A,,Scattered Clouds,30,2013-12-13 22:33:00
4:52 PM,14.0,10.4,86,30.09,10.0,NNE,12.7,-,N/A,,Clear,30,2013-12-13 22:52:00
5:12 PM,12.2,10.4,92,30.10,10.0,NNE,11.5,-,N/A,,Clear,30,2013-12-13 23:12:00
5:33 PM,12.2,10.4,92,30.11,10.0,NNE,16.1,-,N/A,,Mostly Cloudy,30,2013-12-13 23:33:00
5:53 PM,12.2,10.4,92,30.11,10.0,NNE,13.8,-,N/A,,Overcast,30,2013-12-13 23:53:00
6:12 PM,12.2,10.4,92,30.11,10.0,NNE,15.0,18.4,N/A,,Scattered Clouds,30,2013-12-14 00:12:00
6:33 PM,12.2,8.6,85,30.13,10.0,NNE,15.0,19.6,N/A,,Mostly Cloudy,20,2013-12-14 00:33:00
6:52 PM,10.4,8.6,92,30.14,10.0,NNE,13.8,-,N/A,,Overcast,20,2013-12-14 00:52:00
7:12 PM,10.4,8.6,92,30.14,10.0,NE,12.7,-,N/A,,Mostly Cloudy,40,2013-12-14 01:12:00
7:33 PM,12.2,8.6,85,30.14,10.0,NNE,10.4,-,N/A,,Overcast,30,2013-12-14 01:33:00
7:52 PM,10.4,8.6,92,30.15,10.0,NNE,11.5,-,N/A,,Scattered Clouds,30,2013-12-14 01:52:00
8:12 PM,10.4,8.6,92,30.15,10.0,NNE,9.2,-,N/A,,Scattered Clouds,30,2013-12-14 02:12:00
8:33 PM,10.4,8.6,92,30.16,10.0,NNE,11.5,-,N/A,,Scattered Clouds,20,2013-12-14 02:33:00
8:52 PM,10.4,8.6,92,30.16,10.0,NNE,11.5,-,N/A,,Scattered Clouds,20,2013-12-14 02:52:00
9:12 PM,10.4,6.8,85,30.17,10.0,North,12.7,-,N/A,,Mostly Cloudy,10,2013-12-14 03:12:00
9:33 PM,10.4,6.8,85,30.17,10.0,North,12.7,-,N/A,,Scattered Clouds,10,2013-12-14 03:33:00
9:52 PM,10.4,6.8,85,30.17,10.0,NNE,10.4,-,N/A,,Mostly Cloudy,20,2013-12-14 03:52:00
10:12 PM,10.4,6.8,85,30.17,10.0,NNE,10.4,-,N/A,,Mostly Cloudy,20,2013-12-14 04:12:00
10:33 PM,10.4,6.8,85,30.18,10.0,NNE,10.4,-,N/A,,Mostly Cloudy,20,2013-12-14 04:33:00
10:52 PM,10.4,6.8,85,30.19,10.0,NNE,10.4,-,N/A,,Overcast,20,2013-12-14 04:52:00
11:13 PM,10.4,6.8,85,30.19,10.0,NNE,11.5,-,N/A,,Overcast,20,2013-12-14 05:13:00
11:33 PM,10.4,6.8,85,30.19,10.0,NNE,11.5,-,N/A,,Overcast,20,2013-12-14 05:33:00
11:52 PM,10.4,8.6,92,30.19,10.0,NNE,10.4,-,N/A,,Overcast,20,2013-12-14 05:52:00